Location: Hiekkapohja
(62.3333°N, 25.7833°E)
Time: 18:39:30
(UTC+00:00)

AQUA - Pass Details

Date: 07 August 2020
Orbit: 700 x 704 km, 98.2° (Epoch: 20 September)

Event Time Altitude Azimuth Distance (km) Brightness Sun altitude
Rises 00:32:48 0° 18° (NNE) 3,111 9.1 -7.3°
Reaches altitude 10° 00:35:05 10° 21° (NNE) 2,188 8.0 -7.1°
Maximum altitude 00:39:53 72° 106° (ESE) 745 4.0 -6.8°
Drops below altitude 10° 00:44:38 10° 191° (S) 2,170 5.8 -6.5°
Enters shadow 00:45:30 - 192° (SSW) 2,517 6.1 -6.5°
